SCP
0 0 0 0 0 0 0 0 0 0 0 0 0 0 0 0 0 0 0 0 0 0 0 0 0 0 0
-0 0 0 0 0 0 0 0 0 0 0 0 0 0 0 0 0 0 0 0 0 0 0 0 0 0 0
-0 0 0 0 0 0 0 0 0 0 0 0 0 0 0 0 0 0 0 0 0 0 0 0 0 0 0
0 0 0 0 0 0 0 0 0 0 0 0 0 0 0 0 0 0 0 0 0 0 0 0 0 0 0
0 0 0 0 0 0 0 0 0 0 0 0 0 0 0 0 0 0 0 0 0 0 0 0 0 0 0
0 0 0 0 0 0 0 0 0 0 0 0 0 0 0 0 0 0 0 0 0 0 0 0 0 0 0
0 0 0 0 0 0 0 0 0 0 0 0 0 0 0 0 0 0 0 0 0 0 0 0 0 0 0
0 0 0 0 0 0 0 0 0 0 0 0 0 0 0 0 0 0 0 0 0 0 0 0 0 0 0
0 0 0 0 0 0 0 0 0 0 0 0 0 0 0 0 0 0 0 0 0 0 0 0 0 0 0
0 0 0 0 0 0 0 0 0 0 0 0 0 0 0 0 0 0 0 0 0 0 0 0 0 0 0
0 0 0 0 0 0 0 0 0 0 0 0 0 0 0 0 0 0 0 0 0 0 0 0 0 0 0
0 0 0 0 0 0 0 0 0 0 0 0 0 0 0 0 0 0 0 0 0 0 0 0 0 0 0
0 0 0 0 0 0 0 0 0 0 0 0 0 0 0 0 0 0 0 0 0 0 0 0 0 0 0
0 0 0 0 0 0 0 0 0 0 0 0 0 0 0 0 0 0 0 0 0 0 0 0 0 0 0
0 0 0 0 0 0 0 0 0 0 0 0 0 0 0 0 0 0 0 0 0 0 0 0 0 0 0
0 0 0 0 0 0 0 0 0 0 0 0 0 0 0 0 0 0 0 0 0 0 0 0 0 0 0
Wind_Speed_500mb
46 46 44 46 49 50 38 30 28 25 24 24 23 21 18 15 13 12 10 9 8 7 7 8 8 8 9
51 48 50 50 50 48 40 34 30 28 28 27 25 23 21 19 18 16 13 12 11 10 10 10 10 11 11
54 52 50 49 49 48 43 39 34 34 32 31 29 26 25 24 22 19 16 13 11 10 9 10 10 11 11
59 56 54 54 53 50 49 46 42 39 37 34 31 28 26 24 21 18 15 13 12 10 9 9 9 9 11
62 62 63 62 59 58 54 51 46 44 43 42 40 37 34 30 27 23 21 17 14 13 12 10 10 10 11
64 67 68 68 67 65 62 59 55 53 52 50 46 42 39 36 33 29 26 22 19 16 13 11 11 10 11
70 70 73 75 73 70 68 66 63 60 58 55 50 47 45 41 37 33 30 25 21 16 12 11 10 11 12
74 76 78 78 77 77 75 73 70 67 65 63 59 56 53 48 44 39 33 28 24 19 15 13 13 14 14
79 80 83 83 83 84 81 79 78 75 71 68 67 64 60 55 50 45 40 34 29 24 20 17 15 15 15
81 86 91 91 88 89 88 85 84 82 79 76 74 70 67 62 57 53 47 41 36 30 25 20 18 18 18
80 89 95 97 97 96 94 93 91 88 86 83 79 76 73 70 66 60 53 48 41 35 29 25 23 22 20
80 90 99 102 105 104 104 100 95 94 91 88 84 83 81 79 73 66 61 56 48 43 37 32 27 25 24
70 85 96 106 107 108 109 105 102 99 98 94 91 90 88 86 80 73 69 63 57 51 41 33 30 28 27
58 68 79 84 95 99 105 110 108 107 103 100 97 96 94 91 86 81 79 73 68 62 49 36 23 27 32
45 53 61 76 76 78 91 103 107 108 109 103 101 101 98 96 95 91 87 82 77 69 63 34 17 17 27
32 42 53 58 69 76 81 84 93 103 109 106 105 105 102 100 99 95 91 88 84 79 71 68 51 26 19
Wind_Direction_500mb
219 213 213 212 220 231 238 238 235 232 230 227 225 225 227 229 226 219 212 216 223 233 249 256 263 261 260
222 222 221 223 225 235 238 238 233 229 226 221 217 216 213 211 211 214 218 227 238 245 249 255 260 266 270
225 225 225 227 227 232 234 235 232 229 223 218 215 213 209 206 208 211 215 222 232 239 244 251 255 263 267
227 226 227 229 230 232 232 230 227 228 224 221 219 217 216 213 214 219 224 231 240 249 253 258 264 271 276
229 227 227 228 229 230 231 230 229 226 222 220 220 216 215 214 216 218 222 227 231 236 244 255 267 275 276
232 230 231 231 231 231 230 229 228 227 224 223 222 219 217 216 218 219 221 221 222 225 232 242 253 261 268
236 234 233 232 233 234 232 231 229 228 228 228 226 224 222 221 221 221 220 221 224 230 239 253 270 278 281
239 237 238 236 235 233 233 233 231 230 228 227 226 225 225 223 224 224 224 226 228 232 242 258 274 282 285
242 239 238 238 237 236 235 233 232 231 230 229 227 226 225 225 225 225 227 227 229 233 239 248 260 271 279
245 243 241 238 237 238 237 235 233 231 230 229 229 227 227 225 225 226 226 226 227 230 237 247 261 272 277
247 245 244 242 241 238 237 237 236 233 231 230 230 229 229 227 226 225 225 225 225 228 232 239 247 252 256
247 244 242 241 240 239 239 238 237 236 234 231 231 230 229 228 226 226 225 224 223 224 227 231 238 243 243
249 242 240 241 241 240 240 240 239 238 236 233 232 231 229 229 228 227 225 223 222 222 222 224 233 236 237
257 254 246 245 244 244 242 242 240 238 236 235 234 233 231 229 227 227 227 223 220 221 216 219 220 233 233
267 259 251 244 244 247 244 244 242 240 240 237 237 236 233 232 230 230 227 225 225 220 218 207 198 214 213
277 264 259 258 254 256 258 258 254 247 243 240 239 238 236 234 233 232 231 229 225 224 218 220 225 219 186
Wind_Speed_850mb
46 46 44 46 49 50 38 30 28 25 24 24 23 21 18 15 13 12 10 9 8 7 7 8 8 8 9
51 48 50 50 50 48 40 34 30 28 28 27 25 23 21 19 18 16 13 12 11 10 10 10 10 11 11
54 52 50 49 49 48 43 39 34 34 32 31 29 26 25 24 22 19 16 13 11 10 9 10 10 11 11
59 56 54 54 53 50 49 46 42 39 37 34 31 28 26 24 21 18 15 13 12 10 9 9 9 9 11
62 62 63 62 59 58 54 51 46 44 43 42 40 37 34 30 27 23 21 17 14 13 12 10 10 10 11
64 67 68 68 67 65 62 59 55 53 52 50 46 42 39 36 33 29 26 22 19 16 13 11 11 10 11
70 70 73 75 73 70 68 66 63 60 58 55 50 47 45 41 37 33 30 25 21 16 12 11 10 11 12
74 76 78 78 77 77 75 73 70 67 65 63 59 56 53 48 44 39 33 28 24 19 15 13 13 14 14
79 80 83 83 83 84 81 79 78 75 71 68 67 64 60 55 50 45 40 34 29 24 20 17 15 15 15
81 86 91 91 88 89 88 85 84 82 79 76 74 70 67 62 57 53 47 41 36 30 25 20 18 18 18
80 89 95 97 97 96 94 93 91 88 86 83 79 76 73 70 66 60 53 48 41 35 29 25 23 22 20
80 90 99 102 105 104 104 100 95 94 91 88 84 83 81 79 73 66 61 56 48 43 37 32 27 25 24
70 85 96 106 107 108 109 105 102 99 98 94 91 90 88 86 80 73 69 63 57 51 41 33 30 28 27
58 68 79 84 95 99 105 110 108 107 103 100 97 96 94 91 86 81 79 73 68 62 49 36 23 27 32
45 53 61 76 76 78 91 103 107 108 109 103 101 101 98 96 95 91 87 82 77 69 63 34 17 17 27
32 42 53 58 69 76 81 84 93 103 109 106 105 105 102 100 99 95 91 88 84 79 71 68 51 26 19
Wind_Direction_850mb
219 213 213 212 220 231 238 238 235 232 230 227 225 225 227 229 226 219 212 216 223 233 249 256 263 261 260
222 222 221 223 225 235 238 238 233 229 226 221 217 216 213 211 211 214 218 227 238 245 249 255 260 266 270
225 225 225 227 227 232 234 235 232 229 223 218 215 213 209 206 208 211 215 222 232 239 244 251 255 263 267
227 226 227 229 230 232 232 230 227 228 224 221 219 217 216 213 214 219 224 231 240 249 253 258 264 271 276
229 227 227 228 229 230 231 230 229 226 222 220 220 216 215 214 216 218 222 227 231 236 244 255 267 275 276
232 230 231 231 231 231 230 229 228 227 224 223 222 219 217 216 218 219 221 221 222 225 232 242 253 261 268
236 234 233 232 233 234 232 231 229 228 228 228 226 224 222 221 221 221 220 221 224 230 239 253 270 278 281
239 237 238 236 235 233 233 233 231 230 228 227 226 225 225 223 224 224 224 226 228 232 242 258 274 282 285
242 239 238 238 237 236 235 233 232 231 230 229 227 226 225 225 225 225 227 227 229 233 239 248 260 271 279
245 243 241 238 237 238 237 235 233 231 230 229 229 227 227 225 225 226 226 226 227 230 237 247 261 272 277
247 245 244 242 241 238 237 237 236 233 231 230 230 229 229 227 226 225 225 225 225 228 232 239 247 252 256
247 244 242 241 240 239 239 238 237 236 234 231 231 230 229 228 226 226 225 224 223 224 227 231 238 243 243
249 242 240 241 241 240 240 240 239 238 236 233 232 231 229 229 228 227 225 223 222 222 222 224 233 236 237
257 254 246 245 244 244 242 242 240 238 236 235 234 233 231 229 227 227 227 223 220 221 216 219 220 233 233
267 259 251 244 244 247 244 244 242 240 240 237 237 236 233 232 230 230 227 225 225 220 218 207 198 214 213
277 264 259 258 254 256 258 258 254 247 243 240 239 238 236 234 233 232 231 229 225 224 218 220 225 219 186